Location: Mascot Post Office (historical)
(40.2645°N, 99.5462°W)
Time: 02:06:25
(UTC+00:00)

Lacrosse 5 rocket - Pass Details

Date: 14 July 2020
Orbit: 465 x 631 km, 57.0° (Epoch: 14 August)

Event Time Altitude Azimuth Distance (km) Brightness Sun altitude
Rises 04:31:02 0° 323° (NW) 2,731 6.5 -20.8°
Reaches altitude 10° 04:33:36 10° 336° (NNW) 1,801 5.1 -21.1°
Maximum altitude 04:37:03 26° 34° (NE) 1,049 2.9 -21.4°
Enters shadow 04:38:14 22° 63° (ENE) 1,151 2.9 -21.5°
